Current Version              Previous Version:    01  02  03  04  05  06  07  08  09  10  11  12  13  14  15  16  17  18  19  20  21  22  23  24  25  26  27  28  29  30  
   31  32  33  34  35  36  37  38  39  40  41  42  43  44  45  46  47  48  49  50  51  52  53  54  55  56  57  58  59  60  

[Printable]
787
ASUS44 KFWD 210010
RWRTX
NORTH TEXAS HOURLY WEATHER ROUNDUP
NATIONAL WEATHER SERVICE FORT WORTH TX
700 PM CDT MON OCT 20 2014

NOTE: "FAIR" INDICATES FEW OR NO CLOUDS BELOW 12,000 FEET WITH NO
SIGNIFICANT WEATHER AND/OR OBSTRUCTIONS TO VISIBILITY.

TXZ118-119-210100-
DALLAS/FORT WORTH METROPLEX

CITY           SKY/WX    TMP DP  RH WIND       PRES   REMARKS
DFW AIRPORT    MOCLDY    75  59  57 SE7       30.00S
6HR MIN TEMP:  75; 6HR MAX TEMP:  82;

DALLAS LOVE    PTCLDY    77  58  51 E7        30.01R
6HR MIN TEMP:  77; 6HR MAX TEMP:  83;

FTW MEACHAM    CLEAR     77  57  50 SE7       30.00S
6HR MIN TEMP:  77; 6HR MAX TEMP:  83;

DAL-EXECUTIVE  CLEAR     75  58  55 E6        30.01S
6HR MIN TEMP:  75; 6HR MAX TEMP:  83;

FTW-ALLIANCE   MOCLDY    74  58  57 SE7       30.01R
6HR MIN TEMP:  74; 6HR MAX TEMP:  83;

FTW-NAS-JRB    PTCLDY    79  56  45 E6        30.04S
6HR MIN TEMP:  79; 6HR MAX TEMP:  85;

FTW-SPINKS     CLEAR     75  57  53 E7        30.02S
ARLINGTON        N/A     78  58  49 E6        30.01S
6HR MIN TEMP:  77; 6HR MAX TEMP:  83;

GRAND PRAIRIE  CLEAR     75  61  60 MISG      30.02S
ADDISON        PTCLDY    77  57  50 E8        30.02R
MESQUITE       CLEAR     73  59  60 SE3       30.02R
LANCASTER      CLEAR     74  58  56 E5        30.02S
6HR MIN TEMP:  74; 6HR MAX TEMP:  81;

$$

TXZ091>094-102>105-117-120-121-131>134-210100-
NORTH CENTRAL TEXAS

CITY           SKY/WX    TMP DP  RH WIND       PRES   REMARKS
SHRMAN/DENISON CLEAR     76  61  60 CALM      30.03R
6HR MIN TEMP:  76; 6HR MAX TEMP:  81;

GAINESVILLE    CLEAR     73  61  66 MISG      30.04R HAZE
6HR MIN TEMP:  73; 6HR MAX TEMP:  82;

BOWIE          CLEAR     73  61  65 CALM      30.02S
6HR MIN TEMP:  73; 6HR MAX TEMP:  83;

BRIDGEPORT     CLEAR     76  60  58 SE3       30.02S
6HR MIN TEMP:  76; 6HR MAX TEMP:  84;

DECATUR        CLEAR     74  58  56 SE5       30.02S
6HR MIN TEMP:  74; 6HR MAX TEMP:  81;

DENTON         CLEAR     75  58  55 E5        30.01R
6HR MIN TEMP:  75; 6HR MAX TEMP:  83;

MCKINNEY       CLEAR     75  60  59 SE5       30.01S
6HR MIN TEMP:  75; 6HR MAX TEMP:  81;

GREENVILLE     CLEAR     72  59  64 SE3       30.02S
ROCKWALL       CLEAR     74  61  63 S3        30.01R
6HR MIN TEMP:  74; 6HR MAX TEMP:  82;

TERRELL        CLEAR     75  60  59 E3        30.02S
6HR MIN TEMP:  75; 6HR MAX TEMP:  82;

WAXAHACHIE     PTCLDY    73  60  63 CALM      30.03R
6HR MIN TEMP:  73; 6HR MAX TEMP:  82;

CLEBURNE       CLEAR     75  61  60 E5        30.03S
GRANBURY       CLEAR     77  58  51 E5        30.02S
6HR MIN TEMP:  77; 6HR MAX TEMP:  83;

$$

TXZ083>090-098>101-113>116-127>130-139>142-154-155-210100-
WESTERN NORTH TEXAS

CITY           SKY/WX    TMP DP  RH WIND       PRES   REMARKS
WICHITA FALLS  PTCLDY    75  60  59 SE7       29.99S
6HR MIN TEMP:  75; 6HR MAX TEMP:  84; 6HR PCP: TRACE;

WF-KICKAPOO    CLEAR     77  56  49 S5        30.01S
6HR MIN TEMP:  77; 6HR MAX TEMP:  84;

VERNON         CLEAR     79  55  44 SE5       30.00S
ABILENE        CLEAR     76  53  44 S8        30.03R
6HR MIN TEMP:  76; 6HR MAX TEMP:  83;

ABILENE-DYESS  CLEAR     76  55  47 SE10      30.01S
6HR MIN TEMP:  76; 6HR MAX TEMP:  83;

BRECKENRIDGE   PTCLDY    78  56  45 SE3       30.01R
6HR MIN TEMP:  78; 6HR MAX TEMP:  83;

GRAHAM         PTCLDY    78  58  50 E3        30.00R
6HR MIN TEMP:  78; 6HR MAX TEMP:  83;

MINERAL WELLS  CLEAR     76  58  53 E7        30.00R
6HR MIN TEMP:  76; 6HR MAX TEMP:  83;

STEPHENVILLE   PTCLDY    74  57  55 E3        30.05R
6HR MIN TEMP:  74; 6HR MAX TEMP:  82;

COMANCHE       CLEAR     74  58  58 E5        30.02S
6HR MIN TEMP:  74; 6HR MAX TEMP:  81;

BROWNWOOD      CLEAR     73  57  56 E5        30.02S
COLEMAN        PTCLDY    75  56  51 SE5       30.03S
6HR MIN TEMP:  75; 6HR MAX TEMP:  81;

BRADY          CLEAR     73  54  49 SE5       30.03R
$$

TXZ143>147-156>162-174-175-210100-
CENTRAL TEXAS

CITY           SKY/WX    TMP DP  RH WIND       PRES   REMARKS
WACO           PTCLDY    73  60  63 E6        30.01R
6HR MIN TEMP:  73; 6HR MAX TEMP:  83;

WACO-TSTC      CLEAR     73  61  64 CALM      30.01
WACO-MCGREGOR  PTCLDY    75  55  50 E5        30.02S
6HR MIN TEMP:  75; 6HR MAX TEMP:  82;

HILLSBORO      CLEAR     76  56  50 E6        30.01S
6HR MIN TEMP:  76; 6HR MAX TEMP:  82;

CORSICANA      CLEAR     73  59  61 E3        30.03S
6HR MIN TEMP:  73; 6HR MAX TEMP:  80;

MEXIA          CLEAR     72  61  67 CALM      30.01R
6HR MIN TEMP:  72; 6HR MAX TEMP:  79;

HEARNE         PTCLDY    73  61  65 NE3       30.01S
6HR MIN TEMP:  73; 6HR MAX TEMP:  81;

CAMERON        PTCLDY    74  61  62 CALM      30.01R
6HR MIN TEMP:  74; 6HR MAX TEMP:  82;

TEMPLE         PTCLDY    73  55  53 E7        30.01R
6HR MIN TEMP:  73; 6HR MAX TEMP:  82;

KILLEEN        MOCLDY    75  57  53 E8        30.01R
KILLEEN-SKYLRK MOCLDY    75  55  50 E5        30.01S
6HR MIN TEMP:  75; 6HR MAX TEMP:  81;

FORT HOOD      MOCLDY    77  58  51 E3        30.01R
6HR MIN TEMP:  77; 6HR MAX TEMP:  84;

GATESVILLE     PTCLDY    75  59  57 CALM      30.03R
HAMILTON       PTCLDY    74  57  54 E12       30.03R
6HR MIN TEMP:  74; 6HR MAX TEMP:  82;

LAMPASAS       PTCLDY    76  62  61 E3        30.01S
6HR MIN TEMP:  76; 6HR MAX TEMP:  81;

$$

TXZ095>097-106>112-122>126-135>138-148>153-164>167-210100-
EAST TEXAS

CITY           SKY/WX    TMP DP  RH WIND       PRES   REMARKS
PARIS          CLEAR     72  55  56 SE5       30.04R
6HR MIN TEMP:  72; 6HR MAX TEMP:  79;

SULPHUR SPRNGS   N/A     73  60  62 SE3       30.05R
6HR MIN TEMP:  73; 6HR MAX TEMP:  79;

MOUNT PLEASANT CLEAR     72  59  63 SE3       30.05R
6HR MIN TEMP:  72; 6HR MAX TEMP:  78;

MINEOLA        CLEAR     68  63  83 CALM      30.03S
TYLER          CLEAR     74  56  53 CALM      30.03R
6HR MIN TEMP:  73; 6HR MAX TEMP:  81;

LONGVIEW       CLEAR     68  56  65 E3        30.03R
6HR MIN TEMP:  68; 6HR MAX TEMP:  80;

MARSHALL       CLEAR     68  61  76 CALM      30.05S
6HR MIN TEMP:  68; 6HR MAX TEMP:  79;

ATHENS         PTCLDY    70  59  68 CALM      30.01S
PALESTINE      CLEAR     71  63  77 CALM      30.03S
JACKSONVILLE   PTCLDY    70  57  64 CALM      30.05S
HENDERSON      CLEAR     65  58  80 CALM      30.04S
6HR MIN TEMP:  65; 6HR MAX TEMP:  78;

NACOGDOCHES    CLEAR     64  57  77 CALM      30.03S
6HR MIN TEMP:  64; 6HR MAX TEMP:  77;

LUFKIN         CLEAR     70  59  68 NE3       30.02S
6HR MIN TEMP:  69; 6HR MAX TEMP:  82;

$$

SUPPLEMENTAL OBSERVATIONS (CENTRAL)

CITY           SKY/WX    TMP DP  RH WIND       PRES   REMARKS
CADDO GRASSLND   N/A    N/A N/A N/A CALM        N/A
PAT MAYSE LAKE   N/A     75  61  60 E1          N/A
GREENVILLE       N/A     73  59  60 SE3         N/A
CEDAR HILL       N/A     73  59  60 E1          N/A
PALESTINE        N/A     68  61  77 CALM        N/A
MCGREGOR         N/A     73  57  56 E2          N/A
TEMPLE           N/A     73  57  56 E5          N/A
$$

SUPPLEMENTAL OBSERVATIONS (WEST)

CITY           SKY/WX    TMP DP  RH WIND       PRES   REMARKS
MILLERS CREEK    N/A     75  54  46 SE5         N/A
POSSUM KINGDOM   N/A     75  57  53 SE3         N/A